Weather History for Fargo, ND

Change the Weather History Date:

Monday, October 7, 2013

  Actual Average Record
Temperature  
Mean Temperature 51 °F 50 °F  
Max Temperature 67 °F 61 °F 87 °F (1975)
Min Temperature 35 °F 39 °F 19 °F (1952)
Degree Days  
Heating Degree Days 14 16  
Month to date heating degree days 90 100  
Since 1 July heating degree days 215 370  
Cooling Degree Days 0 0  
Month to date cooling degree days 0 0  
Year to date cooling degree days 699 548  
Growing Degree Days 2 (Base 50)    
Moisture  
Dew Point 38 °F    
Average Humidity 60    
Maximum Humidity 85    
Minimum Humidity 34    
Precipitation  
Precipitation 0.00 in 0.08 in 1.88 in (1901)
Month to date precipitation 1.40 0.58  
Year to date precipitation 27.71 19.21  
Snow  
Snow 0.00 in 0.00 in 3.30 in (1894)
Month to date snowfall 0.0 0.0  
Since 1 July snowfall 0.0 0.0  
Since 1 September snowfall 0.0 0.0  
Snow Depth 0.00 in    
Sea Level Pressure  
Sea Level Pressure 29.91 in    
Wind  
Wind Speed 5 mph (SSW)    
Max Wind Speed 17 mph    
Max Gust Speed 24 mph    
Visibility 10 miles    
Events      
T = Trace of Precipitation, MM = Missing Value Source: NWS Daily Summary

Daily Weather History Graph

Daily Weather History Graph

Search for Another Location

Airport:

Trip Planner

Search our weather history database for the weather conditions in past years. The results will help you decide how hot, cold, wet, or windy it might be!

Date:

Astronomy

Oct. 07, 2013 Rise Set
Actual Time 7:34 AM CDT 6:54 PM CDT
Civil Twilight 7:04 AM CDT 7:24 PM CDT
Nautical Twilight 6:28 AM CDT 8:00 PM CDT
Astronomical Twilight 5:53 AM CDT 8:35 PM CDT
Moon 10:37 AM CDT (10/7) 8:27 PM CDT (10/7)
Length of Visible Light 12h 20m
Length of Day
11h 20m
Waxing Crescent, 9% of the Moon is Illuminated
Oct 7
Waxing Crescent
Oct 11
First Quarter
Oct 18
Full
Oct 26
Last Quarter
Nov 3
New

Hourly Weather History & Observations

Time (CDT) Temp. Windchill Dew Point Humidity Pressure Visibility Wind Dir Wind Speed Gust Speed Precip Events Conditions
12:53 AM 46.0 °F 43.9 °F 39.9 °F 79% 29.86 in 10.0 mi WNW 4.6 mph - N/A   Clear
1:53 AM 44.1 °F 42.5 °F 39.0 °F 82% 29.87 in 10.0 mi NNW 3.5 mph - N/A   Clear
2:53 AM 42.1 °F 40.2 °F 37.0 °F 82% 29.89 in 10.0 mi NW 3.5 mph - N/A   Clear
3:53 AM 42.1 °F 37.7 °F 37.0 °F 82% 29.89 in 10.0 mi North 6.9 mph - N/A   Clear
4:53 AM 39.0 °F 36.8 °F 35.1 °F 86% 29.91 in 10.0 mi NNW 3.5 mph - N/A   Clear
5:53 AM 39.0 °F - 35.1 °F 86% 29.93 in 10.0 mi Calm Calm - N/A   Clear
6:53 AM 37.9 °F 35.5 °F 34.0 °F 86% 29.95 in 10.0 mi North 3.5 mph - N/A   Clear
7:53 AM 37.0 °F - 34.0 °F 89% 29.96 in 10.0 mi Calm Calm - N/A   Clear
8:53 AM 44.1 °F - 39.0 °F 82% 29.97 in 10.0 mi Calm Calm - N/A   Clear
9:53 AM 48.0 °F - 39.9 °F 74% 29.98 in 10.0 mi Calm Calm - N/A   Clear
10:53 AM 53.1 °F - 42.1 °F 66% 29.99 in 10.0 mi Calm Calm - N/A   Clear
11:53 AM 57.9 °F - 43.0 °F 58% 29.98 in 10.0 mi Calm Calm - N/A   Clear
12:53 PM 60.1 °F - 39.9 °F 47% 29.97 in 10.0 mi South 3.5 mph - N/A   Clear
1:53 PM 62.1 °F - 39.0 °F 43% 29.95 in 10.0 mi SW 5.8 mph - N/A   Clear
2:53 PM 64.0 °F - 39.0 °F 40% 29.93 in 10.0 mi SW 6.9 mph - N/A   Clear
3:53 PM 64.9 °F - 39.9 °F 40% 29.91 in 10.0 mi SSW 6.9 mph - N/A   Clear
4:53 PM 66.0 °F - 37.9 °F 36% 29.90 in 10.0 mi South 4.6 mph - N/A   Clear
5:53 PM 64.0 °F - 37.9 °F 38% 29.88 in 10.0 mi South 6.9 mph - N/A   Clear
6:53 PM 60.1 °F - 39.0 °F 46% 29.88 in 10.0 mi SE 4.6 mph - N/A   Clear
7:53 PM 57.9 °F - 39.9 °F 51% 29.87 in 10.0 mi SE 6.9 mph - N/A   Clear
8:53 PM 57.0 °F - 39.0 °F 51% 29.86 in 10.0 mi SE 8.1 mph - N/A   Clear
9:53 PM 57.9 °F - 37.0 °F 46% 29.84 in 10.0 mi SSE 11.5 mph - N/A   Clear
10:53 PM 57.0 °F - 37.9 °F 49% 29.83 in 10.0 mi SSE 12.7 mph 20.7 mph N/A   Clear
11:53 PM 55.0 °F - 37.9 °F 53% 29.80 in 10.0 mi South 15.0 mph - N/A   Clear